Regional Weather Roundup
Issued by NWS Upton, NY

Current Version | Previous Version | Graphics & Text | Print | Product List | Glossary Off
Versions: 1 2 3 4 5 6 7 8 9 10 11 12 13 14 15 16 17 18 19 20 21 22 23 24 25 26 27 28 29 30 31 32 33 34 35 36 37 38 39 40 41 42 43 44 45 46 47 48 49

000
ASUS41 KOKX 310904
RWROKX

REGIONAL WEATHER ROUNDUP
NATIONAL WEATHER SERVICE NEW YORK NY
500 AM EDT FRI JUL 31 2015

NOTE: "FAIR" INDICATES FEW OR NO CLOUDS BELOW 12,000 FEET WITH NO
SIGNIFICANT WEATHER AND/OR OBSTRUCTIONS TO VISIBILITY.

NYZ071-072-176-178-NJZ106-104-311000-
NEW YORK CITY METRO AREA


CITY           SKY/WX    TMP DP  RH WIND       PRES   REMARKS
CENTRAL PARK   MOCLDY    75  62  64 NW3       29.88R
LAGUARDIA APRT PTCLDY    75  63  66 NW8       29.84R
KENNEDY INTL   PTCLDY    76  63  64 NW8       29.85R
NEWARK/LIBERTY MOCLDY    75  63  66 NW7       29.85R
BRNX BOT. GARD   N/A     72  63  73 NE1       29.86S
TETERBORO      CLEAR     72  61  68 NW6       29.84R
$$

NYZ177-179-078>081-311000-
LONG ISLAND NEW YORK

CITY           SKY/WX    TMP DP  RH WIND       PRES   REMARKS
FARMINGDALE    CLEAR     74  67  78 NW6       29.84R
ISLIP          CLEAR     72  71  97 CALM      29.82R
SHIRLEY        CLEAR     72  71  97 NW5       29.83S FOG
WESTHAMPTON    FOG       69  68  96 W3        29.84R VSB 1/4
MONTAUK POINT    N/A     74  72  93 W6        29.83R
$$

NYZ052-065-067-311000-
HUDSON VALLEY

CITY           SKY/WX    TMP DP  RH WIND       PRES   REMARKS
WHITE PLAINS   CLEAR     70  65  84 W7        29.85R
NEWBURGH       PTCLDY    66  64  94 W6        29.86S
MONTGOMERY     CLEAR     68  60  75 W8        29.86R
POUGHKEEPSIE   CLEAR     64  62  93 CALM      29.83S FOG
ALBANY         PTCLDY    68  59  73 W8        29.81S
$$

NJZ001-105-106-008-010-013-015-019>022-104-311000-
NEW JERSEY

CITY           SKY/WX    TMP DP  RH WIND       PRES   REMARKS
NEWARK/LIBERTY MOCLDY    75  63  66 NW7       29.85R
TETERBORO      CLEAR     72  61  68 NW6       29.84R
CALDWELL       CLEAR     67  63  87 CALM      29.87R
MORRISTOWN     FOG       64  63  94 CALM      29.87R VSB 1/4
SOMERVILLE     FOG       66  64  93 CALM      29.85S VSB 1/2
SUSSEX         FOG       62  60  93 CALM      29.88R VSB 1
ANDOVER          N/A     63  63 100 CALM      29.89R
TRENTON        CLEAR     70  65  84 NW3       29.87R
MILLVILLE      CLEAR     72  67  84 NW6       29.89R
ATLANTIC CITY  CLEAR     72  70  93 NW5       29.88R
WRIGHTSTOWN    CLEAR     70  69  96 W3        29.85R
TOMS RIVER       N/A     72  70  94 NW3       29.87R
BELMAR         CLEAR     72  66  83 NW3       29.87R
$$

PAZ047>061-062-071-311000-
EASTERN PENNSYLVANIA

CITY           SKY/WX    TMP DP  RH WIND       PRES   REMARKS
PHILADELPHIA   CLEAR     73  61  65 CALM      29.88S
ALLENTOWN      CLEAR     64  61  90 CALM      29.89S
SCRANTON       PTCLDY    63  58  83 SW3       29.90S
$$

CTZ002-004>006-009-010-012-RIZ004-006-007-MAZ004-011-015-311000-
SOUTHERN NEW ENGLAND
 IN CT

CITY           SKY/WX    TMP DP  RH WIND       PRES   REMARKS
BRADLEY INTL   PTCLDY    66  65  96 W5        29.81R
HARTFORD       CLEAR     71  69  93 W3        29.81R
DANBURY        CLEAR     66  63  90 SW3       29.86R
WTRBRY/OXFORD  CLEAR     70  63  78 CALM      29.86S
BRIDGEPORT     CLEAR     71  68  90 NW5       29.82S
MERIDEN        PTCLDY    67  65  93 CALM      29.82S FOG
NEW HAVEN      CLEAR     72  70  93 NW3       29.82S
CHESTER        DRIZZLE   70  70 100 CALM      29.84R
GROTON         FOG       69  69 100 CALM      29.80S VSB 1/4
WILLIMANTIC    FOG       69  68  96 CALM      29.81S VSB 1/4

 IN RI

CITY           SKY/WX    TMP DP  RH WIND       PRES   REMARKS
PROVIDENCE     PTCLDY    72  70  93 W6        29.80R
BLOCK ISLAND     N/A     72  72 100 W7        29.82R VSB 1/4
WESTERLY       FOG       72  71  97 CALM      29.81R VSB 1/4

 IN MA

CITY           SKY/WX    TMP DP  RH WIND       PRES   REMARKS
BOSTON         PTCLDY    73  64  73 W7        29.77S
WORCESTER      CLEAR     66  64  93 W9        29.83S
WESTFIELD      PTCLDY    63  62  97 CALM      29.81S FOG
PROVINCETOWN   PTCLDY    70  64  83 SW6       29.77S
NANTUCKET      CLOUDY    72  71  97 SW5       29.79R FOG
$$

ANZ330-335-338-340-345-350-353-355-311000-
COASTAL MARINE OBSERVATIONS


STATION/POSITION TIME  SKY/WX   TEMP    WIND        PRES    VSBY  WAVE
                                AIR SEA DIR/SP/G                  HT/PER
                 (UTC)          (F)     (DEG/KT/KT) (MB)    (MI)  (FT/S)
NY HARB ENTRANCE 0750            74 75  300/ 10/ 12 1009.7          2/ 5
4S FIRE IS       NOT AVBL
20S FIRE ISLAND  0750            75 74  300/ 10/ 12 1009.5          3/ 6
GREAT SOUTH BAY  0815            75 81  330/  4/  8   N/A
23SW MTP         0850            71 71  270/  6/  6 1009.2          3/ 6
HUDSON CANYON    NOT AVBL
KINGS POINT      0800            74 71  360/  3/  6 1009.6
EXECUTION ROCKS  0800            74     290/  4/  6   N/A
CENTRAL LI SOUND NOT AVBL
EASTERN LI SOUND 0800            70 68  260/  4/  6   N/A
ROBBINS REEF     0800            77     310/  8/ 11 1009.4
$$


>>>>>>>>>>>>>>>>>>>>>>>>>>>> KEY <<<<<<<<<<<<<<<<<<<<<<<<<<<
>                                                          <
>     SKY/WX - SKY CONDITION/PRESENT WEATHER               <
>     TMP    - TEMPERATURE IN FAHRENHEIT                   <
>     DP     - DEWPOINT IN FAHRENHEIT                      <
>     RH     - RELATIVE HUMIDITY IN PERCENT                <
>     WIND   - DIRECTION AND SPEED IN MPH                  <
>     PRES   - MEAN SEA LEVEL PRESSURE IN INCHES OF HG     <
>     WCI    - WIND CHILL INDEX                            <
>     VSB    - VISIBILITY IN MILES                         <
>     HX     - HEAT INDEX                                  <
>     TC     - TEMPERATURE IN CELSIUS                      <
>     VRB    - VARIABLE WIND DIRECTION                     <
>                                                          <
>>>>>>>>>>>>>>>>>>>>>>>>>>>> KEY <<<<<<<<<<<<<<<<<<<<<<<<<<<





USA.gov is the U.S. government's official web portal to all federal, state and local government web resources and services.